Погода Купино

Погода Купино : погода сейчас, прогноз погоды и архив. Всё, что Вы хотите узнать о погоде Купино!

Хотите узнать прогноз погоды Купино? Тогда Вам сюда: Погода Купино

Поиск расширенной информации на нашем сайте:

Другие новости

Новости СМИ2

Главная страница сайта

Новости сайта

03.07.2017

Напоминаем, что на нашем специализированном сайте Метеоцентр.Азия вы можете получить высокодетализированные автоматические прогнозы погоды по пунктам России, СНГ и мира в авиационном формате (включающие направление и скорость ветра, видимость, явления погоды, количество и форму облачности, нижнюю и верхнюю границу облачности).


Погода Купино - сегодня

Время (UTC), дата Ветер
(°,м/с) 
Видим.   Явления Облачность Т
(°С)
Тd
(°С)
f(%) Тe
(°С)
Pmin
(гПа)
dP
(гПа)
Po
(мм)
O2
(г/м3)
Тmin Tmax R s Состояние
почвы
06 22.09.17 340 (С) 20000 м    9/9 1000 м 
[Cu Sc]
+8.3 +2 64 +7  1016.7  0.1  752  294           
09 22.09.17 320 (СЗ) 20000 м    10/10 300 м 
[Frnb]
+9.2 +0.5 54 +8  1016.2  -0.5  752  293           
12 22.09.17 310 (СЗ) 20000 м  в посл. час ливневой дождь  10/10 300 м кучево-дожд. 
[Cb calv]
+6.1 +2 75 +6  1017.1  0.7  752  296    +9.9  0.0     
15 22.09.17 340 (С) 20000 м  {ливн. осадки}  ясно 
+4 +1.1 81 +3  1017.4  0.2  752  299           
18 22.09.17 350 (С) 20000 м  {ливн. осадки}  ясно 
+1.7 -0.1 88 1017.8  0.3  753  301           
21 22.09.17 350 (С) 20000 м    10/10 1000 м 
[Sc]
+0.9 -1.3 85 -1  1018.1  0.3  753  302           
00 23.09.17 350 (С) 6{10}  20000 м    10/10 300 м 
[Frnb]
+0.6 -2.5 80 -3  1018.5  0.4  753  303  +0.6    0.0    влажная 
03 23.09.17 010 (С) 6-10{11}  10 км  слаб. ливневой снег  10/10 600 м кучево-дожд. 
[Cb calv]
+0.9 -3.4 73 -2  1019.2  0.7  754  303  +0.4         
06 23.09.17 360 (С) 6-10{11}  20000 м  слаб. ливневой снег  9/9 600 м кучево-дожд. 
[Cb calv]
+2.5 -3 67 1019.2  754  301           
09 23.09.17 340 (С) 7-13{13}  10 км  слаб. ливневой снег  10/10 600 м кучево-дожд. 
[Cb calv]
+1.7 -2.2 75 -2  1020.1  0.9  754  302           
12 23.09.17 330 (СЗ) 5{14}  10 км  слаб. ливневой снег  10/10 600 м кучево-дожд. 
[Cb calv]
+1 -1.1 86 -2  1021.7  1.5  755  303    +3.1  0.3     
15 23.09.17 320 (СЗ) 6{12}  10 км  слаб. ливневой снег  10/10 600 м кучево-дожд. 
[Cb calv]
-0.3 -1.2 94 -4  1023.2  1.4  756  305           
18 23.09.17 320 (СЗ) 5{11}  20000 м  {ливн. осадки}  10/10 600 м кучево-дожд. 
[Cb calv]
-0.5 -2 90 -4  1024.1  0.9  757  306           
21 23.09.17 320 (СЗ) 10 км  слаб. ливневой снег  10/10 600 м кучево-дожд. 
[Cb calv]
-0.7 -2.1 90 -4  1025  0.9  758  306           
00 24.09.17 320 (СЗ) 20000 м  {ливн. осадки}  10/10 600 м кучево-дожд. 
[Cb calv]
-0.3 -1.7 90 -3  1026.4  1.4  759  306  -0.8    0.5  <0.5  мокрый или
старый снег
50-90% 
03 24.09.17 330 (СЗ) 10 км  слаб. ливневой снег  10/10 600 м кучево-дожд. 
[Cb calv]
+0.3 -0.8 92 -2  1028.3  1.9  760  306           
06 24.09.17 350 (С) 20000 м  {ливн. осадки}  10/10 600 м кучево-дожд. 
[Cb calv]
+2.4 +0.1 85 1029.8  1.6  761  304           
09 24.09.17 340 (С) 20000 м  {ливн. осадки}  10/10 600 м кучево-дожд. 
[Cb calv]
+3.4 +0.3 80 +1  1031  1.2  762  303           
12 24.09.17 330 (СЗ) 20000 м  {ливн. осадки}  10/10 600 м кучево-дожд. 
[Cb calv]
+4.1 +0 75 +4  1032.5  1.5  764  303    +4.3  0.3     
15 24.09.17 360 (С) 20000 м    10/10 600 м кучево-дожд. 
[Cb calv]
+4.2 -1.8 65 +3  1033.7  1.2  764  304           
18 24.09.17 310 (СЗ) 20000 м    10/10 600 м кучево-дожд. 
[Cb calv]
+2.7 -0.7 78 +2  1034.2  0.4  765  305           
21 24.09.17 350 (С) 20000 м    10/10 600 м кучево-дожд. 
[Cb calv]
+2.4 -2.3 71 +2  1034.1  -0.1  765  306           
00 25.09.17 350 (С) н/о    н/о 
+2.5 -3.4 65 +2  1034.2  0.1  765  306  +1.4         
03 25.09.17 020 (С) 20000 м    10/10 1000 м 
[Sc]
+3.9 -3.1 60 +5  1034.4  0.3  765  304           
06 25.09.17 260 (З) 20000 м    10/10 1000 м 
[Sc]
+4.7 -3.7 54 +4  1034.6  0.2  765  304           
Время (UTC), дата Ветер
(°,м/с) 
Видим.   Явления Облачность Т
(°С)
Тd
(°С)
f(%) Тe
(°С)
Pmin
(гПа)
dP
(гПа)
Po
(мм)
O2
(г/м3)
Тmin Tmax R s Состояние
почвы

Для получения пояснительной информации подведите курсор к названию столбца.

ПОГОДА Купино - архив

Всё, что Вы хотите узнать о погоде Купино - удобно и подробно!

Выберите нужную дату (начиная с 1 января 2015* года) и нажмите кнопку "Найти".
Будут отображены архивные сводки погоды по пункту Купино, начиная с указанной даты.


Отображать данные в формате CSV (для использования в таблицах Excel)


Внимание! Наш архив погоды предназначен исключительно для личного некоммерческого использования в познавательных целях. Если Вам необходимы официальные справки о состоянии погоды (для производственных, юридических, коммерческих и т.п. целей), обращайтесь в органы Росгидромета.

*Примечание: данная дата относится к архиву по метеостанциям СССР (Россия, СНГ, Балтия).
Архив по метеостанциям Зарубежной Европы и Азии (кроме Китая) хранится 10 дней, по другим регионам земного шара (Китай, Африка, Америка, Австралия, Океания) - 1 день.

Купино - район местоположения метеостанции


Название, широта, долгота, высота метеостанции:
Купино 54.4°ш. 77.3°д. 115 м над ур. моря [Российская Федерация]

Дополнительная информация

В oтличие oт бoльшинства пoгoдных сайтoв мы публикуем пoдрoбную метеoинфoрмацию в детальнoм прoфессиoнальнoм фoрмате.

Характеристики температуры и влажнoсти вoздуха измеряются на высoте 2 м в тени вдали oт зданий и деревьев.
Скoрoсть ветра измеряется на высoте 10 м (на урoвне рoста челoвека скoрoсть ветра ниже в 1.5-2 раза). Если метеoстанция нахoдится в гoрoде или в лесу, тo скoрoсть ветра занижена на 2-4 м/с пo сравнению с oткрытым местoм. Скoрoсть ветра над акватoриями крупных рек и oзёр, а также на вершинах хoлмoв на 2-5 м/с выше, чем в oбычных услoвиях.
Атмoсфернoе давление в разных тoчках местнoсти мoжет значительнo oтличаться oт давления на метеoстанции, в зависимoсти oт услoвий рельефа (при пoдъёме на 10 м давление пoнижается примернo на 1 мм рт.ст.).